• In Portugal
  • List of Countries
  • For 7 days
  • Water Temperature
  • Satellite Maps
  • Weather Map
  • Weather Widgets
  • user-avatar
    Login

    Hourly Weather Lalitpur

    Today, 22 January, Monday

    Time Temperature Precipitation Wind Pressure Humidity
    00:00 +10°C° 0 mm 1 mps 648 mmHg 81%
    01:00 +10°C° 0 mm 1 mps 648 mmHg 80%
    02:00 +10°C° 0 mm 1 mps 648 mmHg 80%
    03:00 +10°C° 0 mm 1 mps 647 mmHg 79%
    04:00 +10°C° 0 mm 1 mps 647 mmHg 78%
    05:00 +10°C° 0 mm 1 mps 647 mmHg 78%
    06:00 +8°C° 0 mm 2 mps 647 mmHg 76%
    07:00 +11°C° 0 mm 1 mps 648 mmHg 70%
    08:00 +13°C° 0 mm 1 mps 649 mmHg 63%
    09:00 +15°C° 0 mm 1 mps 650 mmHg 57%
    10:00 +18°C° 0 mm 1 mps 650 mmHg 53%
    11:00 +18°C° 0 mm 2 mps 651 mmHg 48%
    12:00 +20°C° 0 mm 2 mps 651 mmHg 44%
    13:00 +20°C° 0 mm 2 mps 651 mmHg 44%
    14:00 +20°C° 0 mm 2 mps 650 mmHg 44%
    15:00 +20°C° 0 mm 2 mps 650 mmHg 44%
    16:00 +18°C° 0 mm 2 mps 649 mmHg 55%
    17:00 +15°C° 0 mm 1 mps 648 mmHg 65%
    18:00 +13°C° 0 mm 1 mps 648 mmHg 75%
    19:00 +13°C° 0 mm 1 mps 648 mmHg 75%
    20:00 +12°C° 0 mm 1 mps 648 mmHg 74%
    21:00 +12°C° 0 mm 1 mps 648 mmHg 74%
    22:00 +12°C° 0 mm 1 mps 648 mmHg 72%
    23:00 +12°C° 0 mm 1 mps 649 mmHg 69%

    Tomorrow, 23 January, Tuesday

    Time Temperature Precipitation Wind Pressure Humidity
    00:00 +12°C° 0 mm 1 mps 649 mmHg 67%
    01:00 +12°C° 0 mm 1 mps 649 mmHg 66%
    02:00 +12°C° 0 mm 1 mps 649 mmHg 64%
    03:00 +12°C° 0 mm 1 mps 649 mmHg 62%
    04:00 +11°C° 0 mm 1 mps 649 mmHg 61%
    05:00 +11°C° 0 mm 1 mps 648 mmHg 59%
    06:00 +11°C° 0 mm 1 mps 648 mmHg 58%
    07:00 +13°C° 0 mm 1 mps 649 mmHg 55%
    08:00 +14°C° 0 mm 1 mps 650 mmHg 51%
    09:00 +15°C° 0 mm 0 mps 651 mmHg 48%
    10:00 +19°C° 0 mm 1 mps 651 mmHg 43%
    11:00 +20°C° 0 mm 1 mps 651 mmHg 38%
    12:00 +21°C° 0 mm 2 mps 651 mmHg 33%
    13:00 +21°C° 0 mm 2 mps 651 mmHg 33%
    14:00 +21°C° 0 mm 2 mps 650 mmHg 33%
    15:00 +21°C° 0 mm 2 mps 649 mmHg 34%
    16:00 +19°C° 0 mm 2 mps 648 mmHg 43%
    17:00 +16°C° 0 mm 2 mps 648 mmHg 53%
    18:00 +13°C° 0 mm 1 mps 647 mmHg 63%
    19:00 +13°C° 0 mm 1 mps 648 mmHg 61%
    20:00 +12°C° 0 mm 2 mps 648 mmHg 60%
    21:00 +12°C° 0 mm 2 mps 648 mmHg 59%
    22:00 +12°C° 0 mm 2 mps 648 mmHg 58%
    23:00 +10°C° 0 mm 2 mps 648 mmHg 57%

    Day after tomorrow, 24 January, Wednesday

    Time Temperature Precipitation Wind Pressure Humidity
    00:00 +10°C° 0 mm 2 mps 648 mmHg 57%
    01:00 +10°C° 0 mm 2 mps 647 mmHg 55%
    02:00 +9°C° 0 mm 2 mps 647 mmHg 53%
    03:00 +9°C° 0 mm 2 mps 647 mmHg 52%
    04:00 +9°C° 0 mm 2 mps 647 mmHg 48%
    05:00 +9°C° 0 mm 2 mps 647 mmHg 45%
    06:00 +9°C° 0 mm 2 mps 647 mmHg 41%
    07:00 +10°C° 0.1 mm 2 mps 647 mmHg 43%
    08:00 +11°C° 0.1 mm 1 mps 648 mmHg 46%
    09:00 +12°C° 0.1 mm 1 mps 648 mmHg 48%
    10:00 +12°C° 0.8 mm 1 mps 648 mmHg 50%
    11:00 +12°C° 0.8 mm 2 mps 648 mmHg 52%
    12:00 +12°C° 0.8 mm 2 mps 647 mmHg 54%
    13:00 +12°C° 0.7 mm 2 mps 647 mmHg 56%
    14:00 +12°C° 0.7 mm 2 mps 646 mmHg 57%
    15:00 +12°C° 0.7 mm 2 mps 646 mmHg 59%
    16:00 +10°C° 0.2 mm 2 mps 645 mmHg 61%
    17:00 +9°C° 0.2 mm 2 mps 645 mmHg 64%
    18:00 +9°C° 0.2 mm 2 mps 645 mmHg 66%
    19:00 +8°C° 0 mm 2 mps 646 mmHg 65%
    20:00 +8°C° 0 mm 2 mps 646 mmHg 63%
    21:00 +7°C° 0 mm 2 mps 646 mmHg 62%
    22:00 +7°C° 0 mm 2 mps 646 mmHg 60%
    23:00 +7°C° 0 mm 2 mps 646 mmHg 58%

    25 January, Thursday

    Time Temperature Precipitation Wind Pressure Humidity
    00:00 +7°C° 0 mm 2 mps 646 mmHg 56%
    01:00 +6°C° 0 mm 2 mps 646 mmHg 54%
    02:00 +6°C° 0 mm 2 mps 646 mmHg 53%
    03:00 +6°C° 0 mm 2 mps 645 mmHg 51%
    04:00 +6°C° 0 mm 2 mps 645 mmHg 50%
    05:00 +6°C° 0 mm 2 mps 645 mmHg 48%
    06:00 +6°C° 0 mm 2 mps 645 mmHg 47%
    07:00 +8°C° 0 mm 2 mps 646 mmHg 43%
    08:00 +11°C° 0 mm 1 mps 647 mmHg 39%
    09:00 +13°C° 0 mm 1 mps 648 mmHg 35%
    10:00 +14°C° 0 mm 1 mps 648 mmHg 33%
    11:00 +16°C° 0 mm 2 mps 649 mmHg 31%
    12:00 +18°C° 0 mm 2 mps 649 mmHg 28%
    13:00 +18°C° 0 mm 2 mps 649 mmHg 30%
    14:00 +18°C° 0 mm 2 mps 648 mmHg 31%
    15:00 +18°C° 0 mm 2 mps 647 mmHg 32%
    16:00 +15°C° 0 mm 2 mps 647 mmHg 41%
    17:00 +13°C° 0 mm 2 mps 646 mmHg 49%
    18:00 +10°C° 0 mm 1 mps 646 mmHg 58%
    19:00 +10°C° 0 mm 1 mps 646 mmHg 57%
    20:00 +8°C° 0 mm 2 mps 647 mmHg 56%
    21:00 +8°C° 0 mm 2 mps 647 mmHg 55%
    22:00 +7°C° 0 mm 2 mps 647 mmHg 51%
    23:00 +7°C° 0 mm 2 mps 647 mmHg 47%

    26 January, Friday

    Time Temperature Precipitation Wind Pressure Humidity
    00:00 +7°C° 0 mm 2 mps 647 mmHg 43%
    01:00 +7°C° 0 mm 2 mps 647 mmHg 40%
    02:00 +7°C° 0 mm 2 mps 646 mmHg 37%
    03:00 +6°C° 0 mm 2 mps 646 mmHg 34%
    04:00 +6°C° 0 mm 2 mps 646 mmHg 32%
    05:00 +6°C° 0 mm 2 mps 646 mmHg 30%
    06:00 +6°C° 0 mm 2 mps 646 mmHg 28%
    07:00 +8°C° 0 mm 2 mps 647 mmHg 26%
    08:00 +11°C° 0 mm 1 mps 648 mmHg 24%
    09:00 +13°C° 0 mm 1 mps 649 mmHg 22%
    10:00 +14°C° 0 mm 1 mps 649 mmHg 21%
    11:00 +16°C° 0 mm 1 mps 649 mmHg 21%
    12:00 +18°C° 0 mm 2 mps 649 mmHg 20%
    13:00 +18°C° 0 mm 2 mps 649 mmHg 20%
    14:00 +17°C° 0 mm 2 mps 648 mmHg 21%
    15:00 +17°C° 0 mm 2 mps 647 mmHg 22%
    16:00 +15°C° 0 mm 2 mps 647 mmHg 28%
    17:00 +12°C° 0 mm 1 mps 646 mmHg 35%
    18:00 +10°C° 0 mm 1 mps 646 mmHg 42%
    19:00 +9°C° 0 mm 1 mps 646 mmHg 40%
    20:00 +7°C° 0 mm 2 mps 647 mmHg 38%
    21:00 +7°C° 0 mm 2 mps 647 mmHg 37%
    22:00 +6°C° 0 mm 2 mps 647 mmHg 33%
    23:00 +6°C° 0 mm 2 mps 647 mmHg 30%

    27 January, Saturday

    Time Temperature Precipitation Wind Pressure Humidity
    00:00 +6°C° 0 mm 2 mps 647 mmHg 27%
    01:00 +6°C° 0 mm 2 mps 646 mmHg 25%
    02:00 +5°C° 0 mm 2 mps 646 mmHg 24%
    03:00 +4°C° 0 mm 3 mps 646 mmHg 22%
    04:00 +5°C° 0 mm 2 mps 646 mmHg 22%
    05:00 +5°C° 0 mm 2 mps 645 mmHg 21%
    06:00 +5°C° 0 mm 2 mps 645 mmHg 21%
    07:00 +7°C° 0 mm 2 mps 646 mmHg 20%
    08:00 +10°C° 0 mm 1 mps 647 mmHg 20%
    09:00 +12°C° 0 mm 1 mps 648 mmHg 19%
    10:00 +13°C° 0 mm 1 mps 648 mmHg 18%
    11:00 +15°C° 0 mm 2 mps 648 mmHg 18%
    12:00 +16°C° 0 mm 2 mps 648 mmHg 17%
    13:00 +16°C° 0 mm 2 mps 647 mmHg 18%
    14:00 +16°C° 0 mm 2 mps 647 mmHg 20%
    15:00 +16°C° 0 mm 2 mps 646 mmHg 21%
    16:00 +13°C° 0 mm 2 mps 646 mmHg 28%
    17:00 +10°C° 0 mm 2 mps 645 mmHg 35%
    18:00 +9°C° 0 mm 1 mps 645 mmHg 42%
    19:00 +8°C° 0 mm 1 mps 645 mmHg 41%
    20:00 +6°C° 0 mm 2 mps 645 mmHg 41%
    21:00 +6°C° 0 mm 2 mps 645 mmHg 40%
    22:00 +5°C° 0 mm 2 mps 645 mmHg 37%
    23:00 +5°C° 0 mm 2 mps 645 mmHg 35%
    Show more